THOR ABLESTAR DEB, 136

Orbit data source: Space-Track

THOR ABLESTAR DEB, 136 is space debris in LEO originally from a launch on Thu, 29 Jun 1961 UTC launched from the Air Force Eastern Test Range (AFETR). Debris objects in space refer to the collection of defunct objects orbiting the Earth. Examples of debris include non-operational satellites, rocket bodies, and fragments generated from explosions, collisions, or faulty payload assembly.

Loading next visibility...
Identifier
136, 1961-015W
Orbit
LEO
Country
Flag of USUS
Related business
Manufacturer
Unknown
Mission
Spacecraft
Bus & Motor
Unknown
Mass
Unknown
Launch date (UTC)
1961-06-29 (64 years ago)
Launch vehicle
Unknown
Launch site
Air Force Eastern Test Range (AFETR)
Object type
Payload
Rocket body
Debris
Shape & HBR
Unknown shape, 0.4 m
Radar Cross Section
Small (<0.1 m²)

Expand to show TLE details & history
Last TLE update: 20 hours ago

TLE from 20 hours ago
0 THOR ABLESTAR DEB
1 00136U 61015W   25352.56705239  .00001549  00000-0  49489-3 0  9993
2 00136  67.5293  26.2074 0047996 205.6535 154.2195 14.41462948330721
Epoch: 2025-12-18T13:36Z
TLE epoch observation values (Epoch: 2025-12-18T13:36:33.326Z)
Latitude
-0°
Longitude
94.64783°
Altitude
786.709 km
Speed
7.445 km/s
True Right ascension
01h 44m 49s
True Declination
0° 00' 00"
Sunlit
Object was in partial shadow at epoch
Visualization orbit readout
Latitude
Unknown
Longitude
Unknown
Altitude
Unknown
Speed
Unknown
Apparent Right ascension
Unknown
Apparent Declination
Unknown
Sunlit
N/A
Visualization observer readout
Local Sidereal Time
08:58:37
Azimuth
Unknown
Elevation
Unknown
Doppler factor
Unknown
Orbital elements
Apogee altitude
786.161 km
Perigee altitude
717.718 km
Semi-major axis
7,130.076 km
Eccentricity
0.0048
Inclination
67.5293°
RAAN
26.2074°
Arg. of periapsis
205.6535°
True anomaly
154.45742°
Mean anomaly
154.2195°
Eccentric anomaly
154.33859°
Mean motion
3.60497 °/min
Orbital period
99.86 mins
BSTAR
0.00049489
Loading maneuver chart data...
Computing Atmospheric mass density...

Documentation

Showing up to 5 results
|